| time (UTC) | temp F | wind direction | speed MPH | gust MPH | rain 1hr in | rain 24hr in | rain mn in | humidity % | barometer mb |
| 20260509203230 | 69 | 147 | 1.0 | 5.0 | 0.00 | 0.00 | 0.00 | 50 | 1017.4 |
| 20260509202731 | 69 | 149 | 2.0 | 7.0 | 0.00 | 0.00 | 0.00 | 49 | 1017.6 |
| 20260509202230 | 69 | 133 | 1.0 | 7.0 | 0.00 | 0.00 | 0.00 | 49 | 1017.5 |
| 20260509201837 | 68 | 104 | 1.0 | 6.0 | 0.00 | 0.00 | 0.00 | 51 | 1017.6 |
| 20260509201816 | 68 | 90 | 1.0 | 6.0 | 0.00 | 0.00 | 0.00 | 51 | 1017.5 |
| 20260509201029 | 68 | 238 | 1.0 | 7.0 | 0.00 | 0.00 | 0.00 | 52 | 1017.8 |
| 20260509200230 | 67 | 240 | 2.0 | 7.0 | 0.00 | 0.00 | 0.00 | 54 | 1017.8 |
| 20260509195728 | 67 | 67 | 2.0 | 4.0 | 0.00 | 0.00 | 0.00 | 54 | 1017.8 |
| 20260509195232 | 67 | 110 | 1.0 | 6.0 | 0.00 | 0.00 | 0.00 | 54 | 1017.9 |
| 20260509194733 | 67 | 188 | 2.0 | 6.0 | 0.00 | 0.00 | 0.00 | 53 | 1017.9 |
| 20260509194541 | 67 | 75 | 2.0 | 7.0 | 0.00 | 0.00 | 0.00 | 54 | 1018.0 |
| 20260509194039 | 66 | 45 | 2.0 | 7.0 | 0.00 | 0.00 | 0.00 | 55 | 1018.0 |
| 20260509193539 | 66 | 71 | 1.0 | 7.0 | 0.00 | 0.00 | 0.00 | 54 | 1018.1 |
| 20260509192732 | 66 | 235 | 1.0 | 3.0 | 0.00 | 0.00 | 0.00 | 54 | 1018.1 |
| 20260509192527 | 66 | 236 | 1.0 | 3.0 | 0.00 | 0.00 | 0.00 | 55 | 1018.2 |
| 20260509191826 | 65 | 232 | 1.0 | 4.0 | 0.00 | 0.00 | 0.00 | 57 | 1018.3 |
| 20260509191811 | 65 | 235 | 1.0 | 4.0 | 0.00 | 0.00 | 0.00 | 55 | 1018.2 |
| 20260509190731 | 64 | 228 | 1.0 | 4.0 | 0.00 | 0.00 | 0.00 | 57 | 1018.3 |
| 20260509190233 | 64 | 129 | 1.0 | 4.0 | 0.00 | 0.00 | 0.00 | 56 | 1018.3 |
| 20260509185732 | 64 | 131 | 1.0 | 4.0 | 0.00 | 0.00 | 0.00 | 56 | 1018.4 |
| 20260509185232 | 64 | 154 | 1.0 | 4.0 | 0.00 | 0.00 | 0.00 | 56 | 1018.5 |
| 20260509184733 | 64 | 155 | 1.0 | 4.0 | 0.00 | 0.00 | 0.00 | 59 | 1018.4 |
| 20260509184525 | 63 | 209 | 1.0 | 4.0 | 0.00 | 0.00 | 0.00 | 60 | 1018.6 |
| 20260509183733 | 63 | 209 | 1.0 | 4.0 | 0.00 | 0.00 | 0.00 | 56 | 1018.6 |
| 20260509183231 | 63 | 182 | 1.0 | 3.0 | 0.00 | 0.00 | 0.00 | 57 | 1018.6 |
| 20260509182731 | 63 | 198 | 1.0 | 3.0 | 0.00 | 0.00 | 0.00 | 59 | 1018.7 |
| 20260509182233 | 62 | 198 | 1.0 | 4.0 | 0.00 | 0.00 | 0.00 | 57 | 1018.8 |
| 20260509181732 | 63 | 204 | 1.0 | 4.0 | 0.00 | 0.00 | 0.00 | 59 | 1018.8 |
| 20260509181232 | 62 | 234 | 1.0 | 3.0 | 0.00 | 0.00 | 0.00 | 59 | 1018.9 |
| 20260509180731 | 62 | 235 | 1.0 | 5.0 | 0.00 | 0.00 | 0.00 | 60 | 1018.9 |
| 20260509180232 | 62 | 237 | 1.0 | 5.0 | 0.00 | 0.00 | 0.00 | 61 | 1019.0 |
| 20260509175731 | 62 | 233 | 1.0 | 4.0 | 0.00 | 0.00 | 0.00 | 62 | 1019.0 |
| 20260509175231 | 62 | 245 | 1.0 | 4.0 | 0.00 | 0.00 | 0.00 | 62 | 1019.0 |
| 20260509174733 | 62 | 245 | 1.0 | 4.0 | 0.00 | 0.00 | 0.00 | 61 | 1018.9 |
| 20260509174233 | 61 | 243 | 0.0 | 3.0 | 0.00 | 0.00 | 0.00 | 65 | 1018.9 |
| 20260509174035 | 61 | 239 | 1.0 | 3.0 | 0.00 | 0.00 | 0.00 | 64 | 1019.0 |
| 20260509173230 | 60 | 235 | 1.0 | 4.0 | 0.00 | 0.00 | 0.00 | 63 | 1019.0 |
| 20260509172729 | 60 | 237 | 1.0 | 4.0 | 0.00 | 0.00 | 0.00 | 64 | 1018.9 |
| 20260509172231 | 60 | 312 | 1.0 | 4.0 | 0.00 | 0.00 | 0.00 | 64 | 1019.0 |
| 20260509172033 | 60 | 315 | 1.0 | 4.0 | 0.00 | 0.00 | 0.00 | 65 | 1019.0 |
| 20260509171231 | 59 | 322 | 1.0 | 5.0 | 0.00 | 0.00 | 0.00 | 66 | 1019.1 |
| 20260509170730 | 59 | 322 | 1.0 | 5.0 | 0.00 | 0.00 | 0.00 | 66 | 1019.1 |
| 20260509170229 | 59 | 183 | 1.0 | 7.0 | 0.00 | 0.00 | 0.00 | 66 | 1019.2 |
| 20260509170030 | 58 | 179 | 1.0 | 7.0 | 0.00 | 0.00 | 0.00 | 66 | 1019.2 |
| 20260509165230 | 58 | 301 | 1.0 | 7.0 | 0.00 | 0.00 | 0.00 | 66 | 1019.2 |
| 20260509165032 | 58 | 301 | 1.0 | 7.0 | 0.00 | 0.00 | 0.00 | 67 | 1019.1 |
| 20260509164232 | 58 | 294 | 1.0 | 7.0 | 0.00 | 0.00 | 0.00 | 69 | 1019.0 |
| 20260509163731 | 58 | 295 | 1.0 | 7.0 | 0.00 | 0.00 | 0.00 | 69 | 1019.1 |
| 20260509163230 | 58 | 279 | 1.0 | 6.0 | 0.00 | 0.00 | 0.00 | 70 | 1019.0 |
| 20260509162728 | 57 | 286 | 1.0 | 7.0 | 0.00 | 0.00 | 0.00 | 71 | 1019.1 |
| 20260509162235 | 57 | 290 | 2.0 | 8.0 | 0.00 | 0.00 | 0.00 | 72 | 1019.1 |
| 20260509161732 | 56 | 282 | 1.0 | 8.0 | 0.00 | 0.00 | 0.00 | 71 | 1019.1 |
| 20260509161233 | 56 | 291 | 1.0 | 4.0 | 0.00 | 0.00 | 0.00 | 72 | 1019.1 |
| 20260509160736 | 56 | 291 | 1.0 | 5.0 | 0.00 | 0.00 | 0.00 | 73 | 1019.3 |
| 20260509160541 | 55 | 287 | 1.0 | 5.0 | 0.00 | 0.00 | 0.00 | 74 | 1019.2 |
| 20260509155731 | 55 | 291 | 2.0 | 6.0 | 0.00 | 0.00 | 0.00 | 74 | 1019.2 |
| 20260509155231 | 55 | 274 | 1.0 | 6.0 | 0.00 | 0.00 | 0.00 | 75 | 1019.1 |
| 20260509154732 | 54 | 293 | 2.0 | 5.0 | 0.00 | 0.00 | 0.00 | 77 | 1019.0 |
| 20260509154230 | 54 | 280 | 2.0 | 5.0 | 0.00 | 0.00 | 0.00 | 77 | 1019.0 |
| 20260509153848 | 53 | 298 | 1.0 | 8.0 | 0.00 | 0.00 | 0.00 | 78 | 1019.0 |
| 20260509153822 | 54 | 290 | 1.0 | 5.0 | 0.00 | 0.00 | 0.00 | 77 | 1018.9 |
| 20260509152730 | 53 | 301 | 1.0 | 8.0 | 0.00 | 0.00 | 0.00 | 78 | 1018.9 |
| 20260509152231 | 53 | 295 | 1.0 | 4.0 | 0.00 | 0.00 | 0.00 | 79 | 1019.0 |
| 20260509151731 | 53 | 293 | 0.0 | 3.0 | 0.00 | 0.00 | 0.00 | 80 | 1019.0 |
| 20260509151229 | 52 | 293 | 0.0 | 3.0 | 0.00 | 0.00 | 0.00 | 82 | 1018.9 |
| 20260509151027 | 51 | 291 | 0.0 | 4.0 | 0.00 | 0.00 | 0.00 | 82 | 1019.1 |
| 20260509150232 | 51 | 291 | 1.0 | 4.0 | 0.00 | 0.00 | 0.00 | 83 | 1018.9 |
| 20260509145730 | 51 | 290 | 1.0 | 3.0 | 0.00 | 0.00 | 0.00 | 84 | 1018.9 |
| 20260509145234 | 50 | 291 | 0.0 | 4.0 | 0.00 | 0.00 | 0.00 | 85 | 1018.8 |
| 20260509144732 | 49 | 286 | 0.0 | 4.0 | 0.00 | 0.00 | 0.00 | 85 | 1018.8 |
| 20260509144232 | 49 | 286 | 0.0 | 3.0 | 0.00 | 0.00 | 0.00 | 85 | 1018.9 |
| 20260509143732 | 49 | 287 | 0.0 | 2.0 | 0.00 | 0.00 | 0.00 | 86 | 1018.8 |
| 20260509143233 | 48 | 287 | 0.0 | 2.0 | 0.00 | 0.00 | 0.00 | 86 | 1018.9 |
| 20260509143038 | 48 | 287 | 0.0 | 2.0 | 0.00 | 0.00 | 0.00 | 87 | 1018.8 |
| 20260509142234 | 48 | 286 | 0.0 | 2.0 | 0.00 | 0.00 | 0.00 | 87 | 1018.8 |
| 20260509141730 | 47 | 286 | 0.0 | 2.0 | 0.00 | 0.00 | 0.00 | 87 | 1018.6 |
| 20260509141229 | 47 | 287 | 0.0 | 2.0 | 0.00 | 0.00 | 0.00 | 87 | 1018.6 |
| 20260509141035 | 47 | 286 | 0.0 | 2.0 | 0.00 | 0.00 | 0.00 | 87 | 1018.5 |
| 20260509140231 | 47 | 287 | 0.0 | 0.0 | 0.00 | 0.00 | 0.00 | 87 | 1018.5 |
| 20260509140035 | 47 | 287 | 0.0 | 0.0 | 0.00 | 0.00 | 0.00 | 87 | 1018.4 |
| 20260509135231 | 47 | 287 | 0.0 | 0.0 | 0.00 | 0.00 | 0.00 | 87 | 1018.4 |
| 20260509134730 | 47 | 287 | 0.0 | 0.0 | 0.00 | 0.00 | 0.00 | 87 | 1018.4 |
| 20260509134530 | 46 | 286 | 0.0 | 0.0 | 0.00 | 0.00 | 0.00 | 87 | 1018.3 |
| 20260509133729 | 46 | 287 | 0.0 | 0.0 | 0.00 | 0.00 | 0.00 | 87 | 1018.2 |
| 20260509133229 | 46 | 287 | 0.0 | 0.0 | 0.00 | 0.00 | 0.00 | 87 | 1018.3 |
| 20260509133027 | 46 | 286 | 0.0 | 0.0 | 0.00 | 0.00 | 0.00 | 87 | 1018.2 |
| 20260509132233 | 46 | 287 | 0.0 | 0.0 | 0.00 | 0.00 | 0.00 | 87 | 1018.0 |
| 20260509131728 | 46 | 287 | 0.0 | 0.0 | 0.00 | 0.00 | 0.00 | 87 | 1018.0 |
| 20260509131227 | 46 | 287 | 0.0 | 0.0 | 0.00 | 0.00 | 0.00 | 86 | 1018.0 |
| 20260509130724 | 46 | 286 | 0.0 | 0.0 | 0.00 | 0.00 | 0.00 | 86 | 1018.0 |
| 20260509130222 | 46 | 287 | 0.0 | 0.0 | 0.00 | 0.00 | 0.00 | 86 | 1017.9 |
| 20260509125716 | 46 | 287 | 0.0 | 0.0 | 0.00 | 0.00 | 0.00 | 86 | 1017.8 |
| 20260509125218 | 46 | 286 | 0.0 | 1.0 | 0.00 | 0.00 | 0.00 | 86 | 1017.6 |
| 20260509124718 | 46 | 287 | 0.0 | 2.0 | 0.00 | 0.00 | 0.00 | 87 | 1017.6 |
| 20260509124520 | 46 | 287 | 0.0 | 2.0 | 0.00 | 0.00 | 0.00 | 87 | 1017.5 |
| 20260509123716 | 46 | 286 | 0.0 | 1.0 | 0.00 | 0.00 | 0.00 | 87 | 1017.5 |
| 20260509123214 | 46 | 287 | 0.0 | 0.0 | 0.00 | 0.00 | 0.00 | 86 | 1017.3 |
| 20260509122713 | 46 | 286 | 0.0 | 0.0 | 0.00 | 0.00 | 0.00 | 86 | 1017.2 |
| 20260509122212 | 47 | 286 | 0.0 | 0.0 | 0.00 | 0.00 | 0.00 | 86 | 1017.2 |
| 20260509121710 | 47 | 287 | 0.0 | 0.0 | 0.00 | 0.00 | 0.00 | 86 | 1017.2 |
| 20260509121210 | 47 | 287 | 0.0 | 0.0 | 0.00 | 0.00 | 0.00 | 86 | 1017.1 |
| 20260509121013 | 47 | 286 | 0.0 | 0.0 | 0.00 | 0.00 | 0.00 | 86 | 1017.0 |
| 20260509120207 | 47 | 287 | 0.0 | 0.0 | 0.00 | 0.00 | 0.00 | 86 | 1016.9 |
| 20260509115707 | 47 | 286 | 0.0 | 0.0 | 0.00 | 0.00 | 0.00 | 85 | 1016.9 |
| 20260509115207 | 47 | 286 | 0.0 | 0.0 | 0.00 | 0.00 | 0.00 | 85 | 1016.8 |
| 20260509115007 | 47 | 287 | 0.0 | 0.0 | 0.00 | 0.00 | 0.00 | 84 | 1016.9 |
| 20260509114510 | 47 | 286 | 0.0 | 0.0 | 0.00 | 0.00 | 0.00 | 84 | 1016.8 |
| 20260509113706 | 47 | 287 | 0.0 | 0.0 | 0.00 | 0.00 | 0.00 | 84 | 1016.9 |
| 20260509113204 | 47 | 287 | 0.0 | 0.0 | 0.00 | 0.00 | 0.00 | 84 | 1016.8 |
| 20260509113009 | 47 | 287 | 0.0 | 0.0 | 0.00 | 0.00 | 0.00 | 84 | 1016.8 |
| 20260509112250 | 47 | 286 | 0.0 | 0.0 | 0.00 | 0.00 | 0.00 | 84 | 1016.8 |
| 20260509111202 | 47 | 286 | 0.0 | 1.0 | 0.00 | 0.00 | 0.00 | 84 | 1016.7 |
| 20260509110702 | 47 | 286 | 0.0 | 0.0 | 0.00 | 0.00 | 0.00 | 83 | 1016.8 |
| 20260509110202 | 48 | 287 | 0.0 | 0.0 | 0.00 | 0.00 | 0.00 | 83 | 1016.5 |
| 20260509105701 | 48 | 287 | 0.0 | 0.0 | 0.00 | 0.00 | 0.00 | 83 | 1016.6 |
| 20260509105505 | 48 | 286 | 0.0 | 0.0 | 0.00 | 0.00 | 0.00 | 83 | 1016.6 |
| 20260509104701 | 48 | 287 | 0.0 | 0.0 | 0.00 | 0.00 | 0.00 | 83 | 1016.5 |
| 20260509104201 | 48 | 287 | 0.0 | 0.0 | 0.00 | 0.00 | 0.00 | 83 | 1016.4 |
| 20260509103702 | 48 | 286 | 0.0 | 1.0 | 0.00 | 0.00 | 0.00 | 83 | 1016.3 |
| 20260509103201 | 48 | 286 | 0.0 | 1.0 | 0.00 | 0.00 | 0.00 | 82 | 1016.3 |
| 20260509102752 | 48 | 287 | 0.0 | 0.0 | 0.00 | 0.00 | 0.00 | 82 | 1016.3 |
| 20260509101702 | 49 | 286 | 0.0 | 0.0 | 0.00 | 0.00 | 0.00 | 82 | 1016.3 |
| 20260509101201 | 49 | 287 | 0.0 | 0.0 | 0.00 | 0.00 | 0.00 | 82 | 1016.3 |
| 20260509100701 | 49 | 287 | 0.0 | 0.0 | 0.00 | 0.00 | 0.00 | 82 | 1016.3 |
| 20260509100203 | 49 | 287 | 0.0 | 0.0 | 0.00 | 0.00 | 0.00 | 82 | 1016.3 |
| 20260509095702 | 49 | 286 | 0.0 | 0.0 | 0.00 | 0.00 | 0.00 | 82 | 1016.3 |
| 20260509095202 | 49 | 287 | 0.0 | 0.0 | 0.00 | 0.00 | 0.00 | 81 | 1016.3 |
| 20260509095006 | 50 | 287 | 0.0 | 0.0 | 0.00 | 0.00 | 0.00 | 81 | 1016.3 |
| 20260509094202 | 50 | 287 | 0.0 | 0.0 | 0.00 | 0.00 | 0.00 | 81 | 1015.9 |
| 20260509093700 | 50 | 286 | 0.0 | 0.0 | 0.00 | 0.00 | 0.00 | 80 | 1015.8 |
| 20260509093202 | 50 | 287 | 0.0 | 0.0 | 0.00 | 0.00 | 0.00 | 80 | 1015.8 |
| 20260509092701 | 50 | 287 | 0.0 | 0.0 | 0.00 | 0.00 | 0.00 | 80 | 1015.7 |
| 20260509092201 | 50 | 287 | 0.0 | 0.0 | 0.00 | 0.00 | 0.00 | 80 | 1015.7 |
| 20260509091702 | 50 | 287 | 0.0 | 1.0 | 0.00 | 0.00 | 0.00 | 80 | 1015.7 |
| 20260509091201 | 51 | 287 | 0.0 | 1.0 | 0.00 | 0.00 | 0.00 | 80 | 1015.7 |
| 20260509091003 | 51 | 287 | 0.0 | 0.0 | 0.00 | 0.00 | 0.00 | 80 | 1015.6 |
| 20260509090504 | 51 | 286 | 0.0 | 0.0 | 0.00 | 0.00 | 0.00 | 80 | 1015.6 |
| 20260509085701 | 51 | 286 | 0.0 | 0.0 | 0.00 | 0.00 | 0.00 | 80 | 1015.6 |
| 20260509085201 | 51 | 287 | 0.0 | 0.0 | 0.00 | 0.00 | 0.00 | 80 | 1015.6 |
| 20260509084959 | 51 | 287 | 0.0 | 0.0 | 0.00 | 0.00 | 0.00 | 80 | 1015.5 |
| 20260509084202 | 51 | 286 | 0.0 | 0.0 | 0.00 | 0.00 | 0.00 | 81 | 1015.6 |
| 20260509083702 | 51 | 287 | 0.0 | 0.0 | 0.00 | 0.00 | 0.00 | 81 | 1015.5 |
| 20260509083201 | 51 | 287 | 0.0 | 0.0 | 0.00 | 0.00 | 0.00 | 81 | 1015.4 |
| 20260509082702 | 51 | 286 | 0.0 | 0.0 | 0.00 | 0.00 | 0.00 | 81 | 1015.4 |
| 20260509082205 | 51 | 286 | 0.0 | 0.0 | 0.00 | 0.00 | 0.00 | 81 | 1015.4 |
| 20260509081957 | 51 | 287 | 0.0 | 0.0 | 0.00 | 0.00 | 0.00 | 81 | 1015.3 |
| 20260509081204 | 51 | 287 | 0.0 | 0.0 | 0.00 | 0.00 | 0.00 | 80 | 1015.4 |
| 20260509080708 | 52 | 286 | 0.0 | 0.0 | 0.00 | 0.00 | 0.00 | 80 | 1015.3 |
| 20260509080206 | 52 | 287 | 0.0 | 0.0 | 0.00 | 0.00 | 0.00 | 80 | 1015.4 |
| 20260509075704 | 52 | 287 | 0.0 | 0.0 | 0.00 | 0.00 | 0.00 | 80 | 1015.4 |
| 20260509075202 | 52 | 287 | 0.0 | 0.0 | 0.00 | 0.00 | 0.00 | 80 | 1015.2 |
| 20260509074702 | 52 | 286 | 0.0 | 0.0 | 0.00 | 0.00 | 0.00 | 80 | 1015.4 |
| 20260509074202 | 53 | 286 | 0.0 | 0.0 | 0.00 | 0.00 | 0.00 | 79 | 1015.2 |
| 20260509073703 | 53 | 287 | 0.0 | 0.0 | 0.00 | 0.00 | 0.00 | 79 | 1015.2 |
| 20260509073202 | 53 | 287 | 0.0 | 0.0 | 0.00 | 0.00 | 0.00 | 78 | 1015.1 |
| 20260509072701 | 53 | 286 | 0.0 | 0.0 | 0.00 | 0.00 | 0.00 | 78 | 1015.0 |
| 20260509072202 | 53 | 287 | 0.0 | 0.0 | 0.00 | 0.00 | 0.00 | 77 | 1015.1 |
| 20260509071702 | 54 | 287 | 0.0 | 0.0 | 0.00 | 0.00 | 0.00 | 76 | 1015.1 |
| 20260509071203 | 54 | 287 | 0.0 | 0.0 | 0.00 | 0.00 | 0.00 | 75 | 1014.9 |
| 20260509070701 | 54 | 286 | 0.0 | 0.0 | 0.00 | 0.00 | 0.00 | 75 | 1014.8 |
| 20260509070202 | 54 | 287 | 0.0 | 1.0 | 0.00 | 0.00 | 0.00 | 75 | 1014.7 |
| 20260509065702 | 54 | 287 | 0.0 | 2.0 | 0.00 | 0.00 | 0.00 | 74 | 1014.6 |
| 20260509065201 | 54 | 287 | 0.0 | 2.0 | 0.00 | 0.00 | 0.00 | 74 | 1014.6 |
| 20260509064702 | 54 | 286 | 0.0 | 3.0 | 0.00 | 0.00 | 0.00 | 75 | 1014.5 |
| 20260509064309 | 54 | 287 | 1.0 | 6.0 | 0.00 | 0.00 | 0.00 | 75 | 1014.5 |
| 20260509064245 | 54 | 286 | 1.0 | 4.0 | 0.00 | 0.00 | 0.00 | 74 | 1014.6 |
| 20260509063201 | 55 | 279 | 1.0 | 6.0 | 0.00 | 0.00 | 0.00 | 75 | 1014.3 |
| 20260509062956 | 55 | 280 | 1.0 | 6.0 | 0.00 | 0.00 | 0.00 | 76 | 1014.2 |
| 20260509062201 | 55 | 275 | 1.0 | 6.0 | 0.00 | 0.00 | 0.00 | 75 | 1014.3 |
| 20260509061701 | 55 | 260 | 1.0 | 4.0 | 0.00 | 0.00 | 0.00 | 73 | 1014.5 |
| 20260509061201 | 56 | 265 | 2.0 | 7.0 | 0.00 | 0.00 | 0.00 | 73 | 1014.2 |
| 20260509060702 | 56 | 266 | 1.0 | 7.0 | 0.00 | 0.00 | 0.00 | 70 | 1014.3 |
| 20260509060202 | 57 | 293 | 0.0 | 2.0 | 0.00 | 0.00 | 0.00 | 68 | 1014.0 |
| 20260509055701 | 56 | 294 | 0.0 | 2.0 | 0.00 | 0.00 | 0.00 | 67 | 1014.1 |
| 20260509055201 | 56 | 294 | 0.0 | 3.0 | 0.00 | 0.00 | 0.00 | 68 | 1014.3 |
| 20260509054702 | 56 | 294 | 1.0 | 4.0 | 0.00 | 0.00 | 0.00 | 68 | 1014.3 |
| 20260509054200 | 56 | 291 | 2.0 | 7.0 | 0.00 | 0.00 | 0.00 | 69 | 1014.5 |
| 20260509053702 | 55 | 270 | 3.0 | 8.0 | 0.00 | 0.00 | 0.00 | 71 | 1014.7 |
| 20260509053202 | 55 | 282 | 4.0 | 13.0 | 0.00 | 0.00 | 0.00 | 73 | 1014.7 |
| 20260509052701 | 56 | 295 | 5.0 | 14.0 | 0.00 | 0.00 | 0.00 | 73 | 1014.8 |
| 20260509052201 | 56 | 283 | 5.0 | 14.0 | 0.00 | 0.00 | 0.00 | 75 | 1014.9 |
| 20260509051702 | 56 | 274 | 5.0 | 14.0 | 0.00 | 0.00 | 0.00 | 78 | 1014.8 |
| 20260509051202 | 56 | 289 | 5.0 | 14.0 | 0.00 | 0.00 | 0.00 | 79 | 1014.8 |
| 20260509050701 | 56 | 304 | 5.0 | 12.0 | 0.00 | 0.00 | 0.00 | 80 | 1014.5 |
| 20260509050200 | 56 | 274 | 5.0 | 12.0 | 0.00 | 0.00 | 0.00 | 79 | 1014.2 |
| 20260509045701 | 56 | 282 | 6.0 | 12.0 | 0.00 | 0.00 | 0.00 | 78 | 1014.0 |
| 20260509045205 | 57 | 291 | 5.0 | 12.0 | 0.00 | 0.00 | 0.00 | 77 | 1013.8 |
| 20260509044706 | 57 | 273 | 5.0 | 12.0 | 0.00 | 0.00 | 0.00 | 75 | 1013.7 |
| 20260509044510 | 58 | 277 | 5.0 | 14.0 | 0.00 | 0.00 | 0.00 | 73 | 1013.8 |
| 20260509043704 | 58 | 309 | 6.0 | 14.0 | 0.00 | 0.00 | 0.00 | 72 | 1013.8 |
| 20260509043509 | 58 | 277 | 6.0 | 15.0 | 0.00 | 0.00 | 0.00 | 70 | 1013.7 |
| 20260509042704 | 59 | 264 | 6.0 | 16.0 | 0.00 | 0.00 | 0.00 | 68 | 1013.7 |
| 20260509042205 | 60 | 279 | 5.0 | 16.0 | 0.00 | 0.00 | 0.00 | 65 | 1013.6 |
| 20260509041705 | 61 | 295 | 4.0 | 11.0 | 0.00 | 0.00 | 0.00 | 62 | 1013.6 |
| 20260509041204 | 62 | 285 | 3.0 | 11.0 | 0.00 | 0.00 | 0.00 | 59 | 1013.3 |
| 20260509040705 | 63 | 291 | 1.0 | 9.0 | 0.00 | 0.00 | 0.00 | 54 | 1013.1 |
| 20260509040207 | 63 | 83 | 0.0 | 2.0 | 0.00 | 0.00 | 0.00 | 46 | 1012.9 |
| 20260509035706 | 63 | 84 | 0.0 | 1.0 | 0.00 | 0.00 | 0.00 | 46 | 1012.5 |
| 20260509035316 | 63 | 84 | 0.0 | 1.0 | 0.00 | 0.00 | 0.00 | 44 | 1012.4 |
| 20260509035251 | 63 | 84 | 0.0 | 1.0 | 0.00 | 0.00 | 0.00 | 45 | 1012.5 |
| 20260509034201 | 63 | 83 | 0.0 | 3.0 | 0.00 | 0.00 | 0.00 | 44 | 1012.3 |
| 20260509033702 | 63 | 84 | 0.0 | 3.0 | 0.00 | 0.00 | 0.00 | 45 | 1012.1 |
| 20260509033202 | 63 | 84 | 0.0 | 2.0 | 0.00 | 0.00 | 0.00 | 44 | 1012.0 |
| 20260509033004 | 63 | 84 | 0.0 | 3.0 | 0.00 | 0.00 | 0.00 | 45 | 1012.0 |
| 20260509032201 | 63 | 83 | 1.0 | 3.0 | 0.00 | 0.00 | 0.00 | 45 | 1012.0 |
| 20260509031704 | 63 | 85 | 0.0 | 3.0 | 0.00 | 0.00 | 0.00 | 45 | 1011.9 |
| 20260509031457 | 64 | 85 | 0.0 | 1.0 | 0.00 | 0.00 | 0.00 | 45 | 1011.9 |
| 20260509030700 | 64 | 85 | 1.0 | 4.0 | 0.00 | 0.00 | 0.00 | 45 | 1011.8 |
| 20260509030202 | 64 | 85 | 1.0 | 4.0 | 0.00 | 0.00 | 0.00 | 45 | 1011.8 |
| 20260509025702 | 64 | 95 | 0.0 | 3.0 | 0.00 | 0.00 | 0.00 | 44 | 1011.7 |
| 20260509025204 | 64 | 95 | 1.0 | 3.0 | 0.00 | 0.00 | 0.00 | 43 | 1011.7 |
| 20260509025010 | 64 | 94 | 1.0 | 4.0 | 0.00 | 0.00 | 0.00 | 43 | 1011.7 |
| 20260509024206 | 64 | 95 | 1.0 | 4.0 | 0.00 | 0.00 | 0.00 | 42 | 1011.6 |
| 20260509023705 | 64 | 104 | 0.0 | 4.0 | 0.00 | 0.00 | 0.00 | 43 | 1011.6 |
| 20260509023205 | 65 | 104 | 0.0 | 1.0 | 0.00 | 0.00 | 0.00 | 45 | 1011.5 |
| 20260509022707 | 65 | 104 | 0.0 | 3.0 | 0.00 | 0.00 | 0.00 | 45 | 1011.5 |
| 20260509022207 | 65 | 104 | 0.0 | 4.0 | 0.00 | 0.00 | 0.00 | 44 | 1011.4 |
| 20260509021702 | 65 | 104 | 1.0 | 4.0 | 0.00 | 0.00 | 0.00 | 43 | 1011.3 |
| 20260509021201 | 65 | 102 | 1.0 | 7.0 | 0.00 | 0.00 | 0.00 | 43 | 1011.4 |
| 20260509020701 | 66 | 168 | 1.0 | 7.0 | 0.00 | 0.00 | 0.00 | 42 | 1011.3 |
| 20260509020201 | 66 | 63 | 1.0 | 6.0 | 0.00 | 0.00 | 0.00 | 42 | 1011.3 |
| 20260509020003 | 66 | 95 | 1.0 | 6.0 | 0.00 | 0.00 | 0.00 | 42 | 1011.3 |
| 20260509015203 | 66 | 55 | 1.0 | 5.0 | 0.00 | 0.00 | 0.00 | 43 | 1011.3 |
| 20260509014702 | 66 | 64 | 1.0 | 4.0 | 0.00 | 0.00 | 0.00 | 42 | 1011.2 |
| 20260509014201 | 66 | 64 | 1.0 | 3.0 | 0.00 | 0.00 | 0.00 | 41 | 1011.2 |
| 20260509013702 | 67 | 64 | 1.0 | 4.0 | 0.00 | 0.00 | 0.00 | 41 | 1011.2 |
| 20260509013201 | 67 | 63 | 1.0 | 4.0 | 0.00 | 0.00 | 0.00 | 41 | 1011.2 |
| 20260509012703 | 67 | 64 | 1.0 | 6.0 | 0.00 | 0.00 | 0.00 | 41 | 1011.2 |
| 20260509012206 | 67 | 69 | 1.0 | 6.0 | 0.00 | 0.00 | 0.00 | 41 | 1011.2 |
| 20260509011959 | 67 | 64 | 2.0 | 7.0 | 0.00 | 0.00 | 0.00 | 41 | 1011.2 |
| 20260509011459 | 67 | 54 | 2.0 | 7.0 | 0.00 | 0.00 | 0.00 | 40 | 1011.2 |
| 20260509010705 | 67 | 100 | 2.0 | 5.0 | 0.00 | 0.00 | 0.00 | 39 | 1011.2 |
| 20260509010320 | 67 | 48 | 1.0 | 5.0 | 0.00 | 0.00 | 0.00 | 42 | 1011.2 |
| 20260509010255 | 67 | 102 | 1.0 | 5.0 | 0.00 | 0.00 | 0.00 | 41 | 1011.2 |
| 20260509005202 | 67 | 48 | 2.0 | 5.0 | 0.00 | 0.00 | 0.00 | 41 | 1011.2 |
| 20260509004704 | 67 | 47 | 2.0 | 5.0 | 0.00 | 0.00 | 0.00 | 43 | 1011.3 |
| 20260509004202 | 67 | 53 | 2.0 | 6.0 | 0.00 | 0.00 | 0.00 | 43 | 1011.2 |
| 20260509003702 | 68 | 132 | 2.0 | 6.0 | 0.00 | 0.00 | 0.00 | 42 | 1011.2 |
| 20260509003201 | 68 | 155 | 2.0 | 5.0 | 0.00 | 0.00 | 0.00 | 41 | 1011.2 |
| 20260509002700 | 68 | 145 | 2.0 | 4.0 | 0.00 | 0.00 | 0.00 | 40 | 1011.2 |
| 20260509002202 | 68 | 108 | 1.0 | 4.0 | 0.00 | 0.00 | 0.00 | 41 | 1011.2 |
| 20260509002004 | 68 | 52 | 1.0 | 5.0 | 0.00 | 0.00 | 0.00 | 40 | 1011.2 |
| 20260509001202 | 69 | 52 | 2.0 | 5.0 | 0.00 | 0.00 | 0.00 | 40 | 1011.2 |
| 20260509000701 | 69 | 64 | 2.0 | 5.0 | 0.00 | 0.00 | 0.00 | 40 | 1011.2 |
| 20260509000204 | 69 | 63 | 2.0 | 7.0 | 0.00 | 0.00 | 0.00 | 39 | 1011.1 |
| 20260508235702 | 69 | 167 | 2.0 | 7.0 | 0.00 | 0.00 | 0.00 | 38 | 1011.2 |
| 20260508235201 | 69 | 60 | 2.0 | 6.0 | 0.00 | 0.00 | 0.00 | 40 | 1011.2 |
| 20260508234702 | 69 | 75 | 2.0 | 6.0 | 0.00 | 0.00 | 0.00 | 39 | 1011.2 |
| 20260508234201 | 69 | 73 | 2.0 | 6.0 | 0.00 | 0.00 | 0.00 | 39 | 1011.2 |
| 20260508233700 | 69 | 75 | 2.0 | 6.0 | 0.00 | 0.00 | 0.00 | 38 | 1011.2 |
| 20260508233201 | 69 | 59 | 2.0 | 6.0 | 0.00 | 0.00 | 0.00 | 38 | 1011.2 |
| 20260508232957 | 69 | 60 | 2.0 | 6.0 | 0.00 | 0.00 | 0.00 | 38 | 1011.2 |
| 20260508232201 | 69 | 68 | 2.0 | 5.0 | 0.00 | 0.00 | 0.00 | 37 | 1011.1 |
| 20260508231701 | 69 | 77 | 2.0 | 7.0 | 0.00 | 0.00 | 0.00 | 39 | 1011.3 |
| 20260508231201 | 69 | 167 | 2.0 | 7.0 | 0.00 | 0.00 | 0.00 | 37 | 1011.2 |
| 20260508231123 | 69 | 83 | 2.0 | 8.0 | 0.00 | 0.00 | 0.00 | 38 | 1011.2 |
| 20260508231109 | 69 | 143 | 2.0 | 8.0 | 0.00 | 0.00 | 0.00 | 37 | 1011.2 |
| 20260508225702 | 69 | 60 | 2.0 | 6.0 | 0.00 | 0.00 | 0.00 | 38 | 1011.2 |
| 20260508225201 | 69 | 57 | 2.0 | 6.0 | 0.00 | 0.00 | 0.00 | 37 | 1011.2 |
| 20260508224703 | 69 | 125 | 1.0 | 6.0 | 0.00 | 0.00 | 0.00 | 38 | 1011.2 |
| 20260508224201 | 69 | 178 | 1.0 | 7.0 | 0.00 | 0.00 | 0.00 | 38 | 1011.3 |
| 20260508223702 | 69 | 187 | 2.0 | 7.0 | 0.00 | 0.00 | 0.00 | 38 | 1011.3 |
| 20260508223201 | 69 | 45 | 3.0 | 7.0 | 0.00 | 0.00 | 0.00 | 38 | 1011.3 |
| 20260508222702 | 69 | 50 | 3.0 | 10.0 | 0.00 | 0.00 | 0.00 | 38 | 1011.1 |
| 20260508222205 | 69 | 129 | 3.0 | 10.0 | 0.00 | 0.00 | 0.00 | 38 | 1011.2 |
| 20260508222000 | 69 | 164 | 3.0 | 10.0 | 0.00 | 0.00 | 0.00 | 38 | 1011.3 |
| 20260508221205 | 69 | 185 | 2.0 | 10.0 | 0.00 | 0.00 | 0.00 | 37 | 1011.2 |
| 20260508220703 | 69 | 52 | 2.0 | 8.0 | 0.00 | 0.00 | 0.00 | 38 | 1011.2 |
| 20260508220205 | 70 | 50 | 2.0 | 8.0 | 0.00 | 0.00 | 0.00 | 36 | 1011.1 |
| 20260508215704 | 70 | 65 | 2.0 | 7.0 | 0.00 | 0.00 | 0.00 | 37 | 1011.1 |
| 20260508215206 | 70 | 100 | 3.0 | 10.0 | 0.00 | 0.00 | 0.00 | 38 | 1011.1 |
| 20260508214705 | 70 | 52 | 3.0 | 10.0 | 0.00 | 0.00 | 0.00 | 38 | 1011.1 |
| 20260508214500 | 70 | 73 | 3.0 | 8.0 | 0.00 | 0.00 | 0.00 | 37 | 1011.1 |
| 20260508213704 | 70 | 59 | 3.0 | 8.0 | 0.00 | 0.00 | 0.00 | 37 | 1011.1 |
| 20260508213458 | 70 | 52 | 3.0 | 10.0 | 0.00 | 0.00 | 0.00 | 38 | 1011.1 |
| 20260508213010 | 71 | 94 | 4.0 | 10.0 | 0.00 | 0.00 | 0.00 | 37 | 1011.1 |
| 20260508212512 | 71 | 56 | 3.0 | 10.0 | 0.00 | 0.00 | 0.00 | 37 | 1011.1 |
| 20260508211706 | 71 | 56 | 3.0 | 10.0 | 0.00 | 0.00 | 0.00 | 37 | 1011.1 |
| 20260508211612 | 71 | 160 | 3.0 | 9.0 | 0.00 | 0.00 | 0.00 | 36 | 1011.1 |
| 20260508211558 | 71 | 82 | 3.0 | 10.0 | 0.00 | 0.00 | 0.00 | 37 | 1011.1 |
| 20260508210205 | 72 | 52 | 3.0 | 10.0 | 0.00 | 0.00 | 0.00 | 37 | 1011.1 |
| 20260508205704 | 72 | 62 | 3.0 | 10.0 | 0.00 | 0.00 | 0.00 | 38 | 1011.1 |
| 20260508205204 | 71 | 71 | 3.0 | 11.0 | 0.00 | 0.00 | 0.00 | 39 | 1011.2 |
| 20260508204705 | 71 | 43 | 3.0 | 11.0 | 0.00 | 0.00 | 0.00 | 39 | 1011.2 |
| 20260508204459 | 71 | 62 | 3.0 | 8.0 | 0.00 | 0.00 | 0.00 | 40 | 1011.3 |
| 20260508203959 | 71 | 59 | 3.0 | 7.0 | 0.00 | 0.00 | 0.00 | 41 | 1011.2 |